BHS2072 MYNN-KFLL

Flight info

Callsign BHS2072
Flight time 0h 41m
Altitude 20000
Route PEACH OLAHS3
Aircraft B737/M-SDE2E3FGHIRWXY/LB1

Departure

Time 2026-05-04 01:30
Airport Lynden Pindling International Airport (MYNN)

Arrival

Time 2026-05-04 02:11
Airport Fort Lauderdale Hollywood International Airport (KFLL)
Time Latitude Longitude Altitude Speed Heading
2026-05-04 01:20 25.05041 -77.46885 25 ft 0 kts 353°
2026-05-04 01:23 25.05038 -77.46884 25 ft 1 kts 353°
2026-05-04 01:23 25.05023 -77.46883 25 ft 2 kts 355°
2026-05-04 01:24 25.05000 -77.46880 25 ft 3 kts 356°
2026-05-04 01:24 25.04985 -77.46880 25 ft 2 kts 358°
2026-05-04 01:24 25.04966 -77.46880 24 ft 3 kts
2026-05-04 01:24 25.04956 -77.46880 25 ft 0 kts
2026-05-04 01:25 25.04957 -77.46880 25 ft 0 kts 359°
2026-05-04 01:26 25.04960 -77.46883 25 ft 1 kts 298°
2026-05-04 01:26 25.04947 -77.46901 25 ft 4 kts 223°
2026-05-04 01:26 25.04920 -77.46929 25 ft 5 kts 227°
2026-05-04 01:26 25.04898 -77.46971 26 ft 6 kts 270°
2026-05-04 01:27 25.04901 -77.46983 26 ft 7 kts 291°
2026-05-04 01:27 25.04920 -77.47015 27 ft 8 kts 311°
2026-05-04 01:27 25.04942 -77.47041 27 ft 9 kts 314°
2026-05-04 01:28 25.04997 -77.47101 27 ft 14 kts 314°
2026-05-04 01:28 25.05112 -77.47229 25 ft 27 kts 314°
2026-05-04 01:28 25.05216 -77.47408 24 ft 29 kts 274°
2026-05-04 01:28 25.05174 -77.47549 24 ft 0 kts 225°
2026-05-04 01:29 25.05165 -77.47545 24 ft 6 kts 143°
2026-05-04 01:29 25.05063 -77.47437 24 ft 49 kts 134°
2026-05-04 01:29 25.04640 -77.46967 26 ft 120 kts 134°
2026-05-04 01:29 25.03907 -77.46162 64 ft 173 kts 134°
2026-05-04 01:30 25.03097 -77.45260 973 ft 159 kts 133°
2026-05-04 01:30 25.02358 -77.44425 1746 ft 156 kts 132°
2026-05-04 01:30 25.01803 -77.43363 2210 ft 170 kts 100°
2026-05-04 01:30 25.02093 -77.42078 2641 ft 188 kts 50°
2026-05-04 01:31 25.03282 -77.41389 3130 ft 205 kts
2026-05-04 01:31 25.04745 -77.41628 3641 ft 221 kts 341°
2026-05-04 01:31 25.06121 -77.42458 4201 ft 233 kts 319°
2026-05-04 01:31 25.07350 -77.43702 4809 ft 245 kts 314°
2026-05-04 01:32 25.08639 -77.45027 5385 ft 260 kts 316°
2026-05-04 01:32 25.10027 -77.46370 6067 ft 270 kts 317°
2026-05-04 01:32 25.11463 -77.47711 6882 ft 274 kts 317°
2026-05-04 01:32 25.12913 -77.49058 7727 ft 276 kts 317°
2026-05-04 01:33 25.14390 -77.50436 8535 ft 282 kts 317°
2026-05-04 01:33 25.15883 -77.51832 9423 ft 284 kts 317°
2026-05-04 01:33 25.17403 -77.53256 10307 ft 287 kts 316°
2026-05-04 01:33 25.18956 -77.54715 10896 ft 302 kts 316°
2026-05-04 01:34 25.20600 -77.56261 11421 ft 318 kts 317°
2026-05-04 01:34 25.22346 -77.57900 11964 ft 333 kts 317°
2026-05-04 01:34 25.24147 -77.59591 12478 ft 348 kts 317°
2026-05-04 01:34 25.26019 -77.61346 13235 ft 354 kts 316°
2026-05-04 01:35 25.27901 -77.63110 14140 ft 356 kts 316°
2026-05-04 01:35 25.29811 -77.64900 14928 ft 362 kts 316°
2026-05-04 01:35 25.31746 -77.66718 15741 ft 366 kts 316°
2026-05-04 01:35 25.33683 -77.68539 16559 ft 370 kts 315°
2026-05-04 01:36 25.35665 -77.70402 17332 ft 374 kts 315°
2026-05-04 01:36 25.37643 -77.72265 18086 ft 378 kts 315°
2026-05-04 01:36 25.39628 -77.74141 18893 ft 379 kts 313°
2026-05-04 01:36 25.41507 -77.76232 19552 ft 380 kts 305°
2026-05-04 01:37 25.42975 -77.78629 19924 ft 377 kts 293°
2026-05-04 01:37 25.43929 -77.81329 19998 ft 373 kts 284°
2026-05-04 01:37 25.44593 -77.84060 20005 ft 368 kts 281°
2026-05-04 01:37 25.45182 -77.86823 20004 ft 369 kts 280°
2026-05-04 01:38 25.45757 -77.89601 20007 ft 368 kts 280°
2026-05-04 01:38 25.46327 -77.92336 20011 ft 369 kts 280°
2026-05-04 01:38 25.46913 -77.95101 20007 ft 367 kts 281°
2026-05-04 01:38 25.47510 -77.97865 20010 ft 368 kts 281°
2026-05-04 01:39 25.48131 -78.00633 20009 ft 368 kts 281°
2026-05-04 01:39 25.48736 -78.03393 20010 ft 369 kts 281°
2026-05-04 01:39 25.49329 -78.06145 20007 ft 367 kts 281°
2026-05-04 01:39 25.49918 -78.08895 20005 ft 367 kts 281°
2026-05-04 01:40 25.50506 -78.11633 20009 ft 370 kts 281°
2026-05-04 01:40 25.51102 -78.14403 20007 ft 367 kts 281°
2026-05-04 01:40 25.51692 -78.17137 20007 ft 367 kts 281°
2026-05-04 01:40 25.52289 -78.19897 20007 ft 369 kts 281°
2026-05-04 01:41 25.52888 -78.22666 20007 ft 367 kts 280°
2026-05-04 01:41 25.53490 -78.25449 20005 ft 369 kts 281°
2026-05-04 01:41 25.54087 -78.28193 20005 ft 369 kts 281°
2026-05-04 01:41 25.54685 -78.30932 20005 ft 366 kts 281°
2026-05-04 01:42 25.55285 -78.33675 20006 ft 366 kts 281°
2026-05-04 01:42 25.55882 -78.36406 20005 ft 367 kts 281°
2026-05-04 01:42 25.56484 -78.39166 20004 ft 367 kts 280°
2026-05-04 01:42 25.57081 -78.41908 20007 ft 366 kts 281°
2026-05-04 01:43 25.57680 -78.44654 20002 ft 366 kts 281°
2026-05-04 01:43 25.58275 -78.47397 20005 ft 366 kts 281°
2026-05-04 01:43 25.58868 -78.50127 20005 ft 365 kts 281°
2026-05-04 01:43 25.59457 -78.52846 20006 ft 365 kts 281°
2026-05-04 01:44 25.60049 -78.55576 20004 ft 365 kts 280°
2026-05-04 01:44 25.60645 -78.58328 20002 ft 365 kts 281°
2026-05-04 01:44 25.61236 -78.61060 20003 ft 367 kts 281°
2026-05-04 01:44 25.61831 -78.63816 20011 ft 373 kts 281°
2026-05-04 01:45 25.62447 -78.66684 20005 ft 383 kts 280°
2026-05-04 01:45 25.63060 -78.69528 20002 ft 383 kts 280°
2026-05-04 01:45 25.64246 -78.74990 19999 ft 344 kts 280°
2026-05-04 01:46 25.64786 -78.77483 20000 ft 329 kts 280°
2026-05-04 01:46 25.65319 -78.79960 20003 ft 330 kts 279°
2026-05-04 01:46 25.65847 -78.82443 19995 ft 332 kts 280°
2026-05-04 01:46 25.66384 -78.84976 19830 ft 346 kts 280°
2026-05-04 01:47 25.66939 -78.87593 19431 ft 350 kts 280°
2026-05-04 01:47 25.67492 -78.90176 18957 ft 345 kts 280°
2026-05-04 01:47 25.68046 -78.92755 18478 ft 340 kts 280°
2026-05-04 01:47 25.68584 -78.95265 18008 ft 335 kts 280°
2026-05-04 01:48 25.69120 -78.97776 17540 ft 330 kts 280°
2026-05-04 01:48 25.69640 -79.00220 17080 ft 326 kts 280°
2026-05-04 01:48 25.70155 -79.02637 16617 ft 322 kts 280°
2026-05-04 01:48 25.70665 -79.05033 16164 ft 318 kts 280°
2026-05-04 01:49 25.71172 -79.07418 15718 ft 315 kts 281°
2026-05-04 01:49 25.71671 -79.09769 15272 ft 313 kts 280°
2026-05-04 01:49 25.72175 -79.12154 14819 ft 327 kts 281°
2026-05-04 01:49 25.72699 -79.14631 14344 ft 331 kts 281°
2026-05-04 01:50 25.73227 -79.17114 13875 ft 327 kts 281°
2026-05-04 01:50 25.73737 -79.19519 13418 ft 322 kts 281°
2026-05-04 01:50 25.74247 -79.21920 12960 ft 319 kts 281°
2026-05-04 01:50 25.74749 -79.24289 12502 ft 315 kts 281°
2026-05-04 01:51 25.75244 -79.26633 12058 ft 312 kts 281°
2026-05-04 01:51 25.75744 -79.28982 11606 ft 308 kts 282°
2026-05-04 01:51 25.76293 -79.31246 11172 ft 306 kts 284°
2026-05-04 01:51 25.76903 -79.33504 10727 ft 303 kts 285°
2026-05-04 01:52 25.77513 -79.35716 10373 ft 297 kts 284°
2026-05-04 01:52 25.78098 -79.37859 10210 ft 285 kts 285°
2026-05-04 01:52 25.78652 -79.39923 10110 ft 272 kts 284°
2026-05-04 01:52 25.79179 -79.41908 9856 ft 266 kts 284°
2026-05-04 01:53 25.79700 -79.43885 9485 ft 265 kts 284°
2026-05-04 01:53 25.80208 -79.45811 9159 ft 262 kts 284°
2026-05-04 01:53 25.80716 -79.47738 8835 ft 259 kts 284°
2026-05-04 01:53 25.81224 -79.49667 8518 ft 256 kts 284°
2026-05-04 01:54 25.81721 -79.51555 8198 ft 254 kts 284°
2026-05-04 01:54 25.82214 -79.53426 7882 ft 252 kts 284°
2026-05-04 01:54 25.82705 -79.55287 7565 ft 250 kts 285°
2026-05-04 01:54 25.83184 -79.57111 7263 ft 247 kts 284°
2026-05-04 01:55 25.83670 -79.58958 6952 ft 246 kts 284°
2026-05-04 01:55 25.84195 -79.60737 6648 ft 244 kts 288°
2026-05-04 01:55 25.84833 -79.62485 6341 ft 243 kts 291°
2026-05-04 01:55 25.85507 -79.64191 6053 ft 242 kts 292°
2026-05-04 01:56 25.86227 -79.65916 6007 ft 252 kts 294°
2026-05-04 01:56 25.87013 -79.67712 5999 ft 255 kts 294°
2026-05-04 01:56 25.87782 -79.69463 6000 ft 255 kts 294°
2026-05-04 01:56 25.88560 -79.71256 5999 ft 256 kts 294°
2026-05-04 01:57 25.89327 -79.73038 5998 ft 254 kts 294°
2026-05-04 01:57 25.90080 -79.74800 6000 ft 255 kts 293°
2026-05-04 01:57 25.90840 -79.76586 6003 ft 256 kts 293°
2026-05-04 01:57 25.91599 -79.78368 6001 ft 255 kts 293°
2026-05-04 01:58 25.92358 -79.80150 6001 ft 254 kts 293°
2026-05-04 01:58 25.93116 -79.81930 5999 ft 254 kts 293°
2026-05-04 01:58 25.93877 -79.83718 5997 ft 255 kts 293°
2026-05-04 01:58 25.94628 -79.85479 5998 ft 253 kts 293°
2026-05-04 01:59 25.95390 -79.87269 5997 ft 255 kts 293°
2026-05-04 01:59 25.96149 -79.89046 5995 ft 254 kts 293°
2026-05-04 01:59 25.96904 -79.90821 5996 ft 254 kts 293°
2026-05-04 01:59 25.97657 -79.92593 6001 ft 255 kts 293°
2026-05-04 02:00 25.98418 -79.94380 6007 ft 255 kts 294°
2026-05-04 02:00 25.99334 -79.96062 6006 ft 256 kts 305°
2026-05-04 02:00 26.00498 -79.97549 6007 ft 255 kts 311°
2026-05-04 02:00 26.01717 -79.98960 6008 ft 256 kts 311°
2026-05-04 02:01 26.02946 -80.00404 6009 ft 255 kts 310°
2026-05-04 02:01 26.04159 -80.01870 6006 ft 256 kts 309°
2026-05-04 02:01 26.05351 -80.03336 6007 ft 256 kts 309°
2026-05-04 02:01 26.06539 -80.04806 6011 ft 257 kts 309°
2026-05-04 02:02 26.07738 -80.06289 6010 ft 256 kts 309°
2026-05-04 02:02 26.08922 -80.07752 6013 ft 256 kts 309°
2026-05-04 02:02 26.10114 -80.09226 6013 ft 254 kts 309°
2026-05-04 02:02 26.11291 -80.10684 6014 ft 255 kts 309°
2026-05-04 02:03 26.12479 -80.12157 6016 ft 253 kts 309°
2026-05-04 02:03 26.13653 -80.13612 6014 ft 255 kts 309°
2026-05-04 02:03 26.14715 -80.15204 6009 ft 252 kts 296°
2026-05-04 02:03 26.15191 -80.17062 5924 ft 253 kts 273°
2026-05-04 02:04 26.15188 -80.19000 5687 ft 251 kts 267°
2026-05-04 02:04 26.15119 -80.20935 5445 ft 251 kts 268°
2026-05-04 02:04 26.15083 -80.22876 5200 ft 249 kts 270°
2026-05-04 02:04 26.15081 -80.24802 5030 ft 249 kts 270°
2026-05-04 02:05 26.15093 -80.26716 5019 ft 249 kts 270°
2026-05-04 02:05 26.15105 -80.28662 5020 ft 251 kts 270°
2026-05-04 02:05 26.15114 -80.30592 4980 ft 245 kts 270°
2026-05-04 02:05 26.15113 -80.32458 4950 ft 236 kts 267°
2026-05-04 02:06 26.14662 -80.34146 4793 ft 229 kts 237°
2026-05-04 02:06 26.13462 -80.35308 4481 ft 233 kts 209°
2026-05-04 02:06 26.11886 -80.35829 4194 ft 235 kts 189°
2026-05-04 02:06 26.10261 -80.35808 3904 ft 237 kts 168°
2026-05-04 02:07 26.08804 -80.34949 3575 ft 241 kts 139°
2026-05-04 02:07 26.07738 -80.33539 3341 ft 238 kts 117°
2026-05-04 02:07 26.07241 -80.31792 3064 ft 236 kts 98°
2026-05-04 02:07 26.07232 -80.30022 2979 ft 232 kts 82°
2026-05-04 02:08 26.07497 -80.28314 2743 ft 220 kts 79°
2026-05-04 02:08 26.07661 -80.26638 2230 ft 216 kts 86°
2026-05-04 02:08 26.07689 -80.25017 1706 ft 208 kts 87°
2026-05-04 02:08 26.07700 -80.23457 1254 ft 196 kts 88°
2026-05-04 02:09 26.07702 -80.22008 977 ft 178 kts 88°
2026-05-04 02:09 26.07701 -80.20714 757 ft 158 kts 88°
2026-05-04 02:09 26.07697 -80.19552 556 ft 143 kts 89°
2026-05-04 02:09 26.07694 -80.18494 387 ft 138 kts 88°
2026-05-04 02:10 26.07695 -80.17430 222 ft 137 kts 89°
2026-05-04 02:10 26.07695 -80.16375 45 ft 139 kts 89°
2026-05-04 02:10 26.07687 -80.15359 9 ft 108 kts 89°
2026-05-04 02:10 26.07684 -80.14745 9 ft 63 kts 90°
2026-05-04 02:11 26.07591 -80.14339 9 ft 47 kts 120°
2026-05-04 02:11 26.07556 -80.14041 9 ft 37 kts 91°
2026-05-04 02:11 26.07519 -80.13810 9 ft 22 kts 95°
2026-05-04 02:11 26.07496 -80.13727 9 ft 5 kts 152°
2026-05-04 02:12 26.07456 -80.13733 9 ft 6 kts 194°
2026-05-04 02:12 26.07418 -80.13736 9 ft 4 kts 181°
2026-05-04 02:12 26.07392 -80.13744 9 ft 4 kts 234°
2026-05-04 02:12 26.07379 -80.13774 9 ft 3 kts 246°
2026-05-04 02:13 26.07374 -80.13784 9 ft 0 kts 245°
2026-05-04 02:13 26.07372 -80.13790 9 ft 0 kts 245°